Mullan Pass, ID

12:20 PM PDT on October 18, 2019 (GMT -0700)
Mullan Pass

Weather History for KMLP - August, 2019

Change the Weather History Date:

Sunday, August 11, 2019

  Actual Average (WUND) Record (WUND)
Temperature  
Mean Temperature 50 °F -  
Max Temperature 55 °F - - (-1)
Min Temperature 46 °F - - (-1)
Degree Days  
Heating Degree Days 14    
Moisture  
Dew Point 47 °F    
Average Humidity 89    
Maximum Humidity 97    
Minimum Humidity 80    
Precipitation  
Precipitation 0.18 in - - ()
Sea Level Pressure  
Sea Level Pressure 30.03 in    
Wind  
Wind Speed 4 mph (NW)    
Max Wind Speed 10 mph    
Max Gust Speed 21 mph    
Visibility 4 miles    
Events Fog , Rain    
Averages and records for this station are not official NWS values.
T = Trace of Precipitation, MM = Missing Value Source: NWS Daily Summary

Daily Weather History Graph

Daily Weather History Graph

Search for Another Location

Airport or City:

Astronomy

Aug. 11, 2019 Rise Set
Actual Time 5:33 AM PDT 8:01 PM PDT
Civil Twilight 4:59 AM PDT 8:35 PM PDT
Nautical Twilight 4:15 AM PDT 9:18 PM PDT
Astronomical Twilight 3:26 AM PDT 10:07 PM PDT
Moon 5:54 PM PDT (8/11) 1:48 AM PDT (8/11)
Length of Visible Light 15h 36m
Length of Day
14h 28m
Waxing Gibbous, 87% of the Moon is Illuminated
Aug 11
Waxing Gibbous
Aug 15
Full
Aug 23
Last Quarter
Aug 30
New
Sep 5
First Quarter

Hourly Weather History & Observations

Time (PDT) Temp. Windchill Dew Point Humidity Pressure Visibility Wind Dir Wind Speed Gust Speed Precip Events Conditions
12:53 AM 50.0 °F - 44.1 °F 80% 29.82 in 10.0 mi SSW 4.6 mph - N/A   Mostly Cloudy
1:53 AM 48.9 °F - 45.0 °F 86% 29.81 in 10.0 mi SSW 5.8 mph - N/A   Partly Cloudy
2:53 AM 48.9 °F - 45.0 °F 86% 29.81 in 10.0 mi Calm Calm - N/A   Clear
3:53 AM 48.9 °F - 45.0 °F 86% 29.82 in 10.0 mi WNW 4.6 mph - N/A   Scattered Clouds
4:53 AM 48.9 °F - 45.0 °F 86% 29.83 in 10.0 mi WNW 4.6 mph - N/A   Clear
5:53 AM 50.0 °F - 44.1 °F 80% 29.85 in 10.0 mi Calm Calm - N/A   Mostly Cloudy
6:53 AM 51.1 °F - 45.0 °F 80% 29.86 in 10.0 mi Calm Calm - N/A   Partly Cloudy
7:53 AM 51.1 °F - 46.0 °F 83% 29.88 in 10.0 mi Variable 3.5 mph - N/A   Overcast
8:50 AM 51.8 °F - 46.4 °F 82% 30.08 in 10.0 mi Variable 4.6 mph - N/A   Partly Cloudy
8:53 AM 51.1 °F - 46.9 °F 86% 29.87 in 10.0 mi NNW 4.6 mph - N/A   Scattered Clouds
9:15 AM 51.1 °F - 46.9 °F 86% 30.08 in 10.0 mi NNW 3.5 mph - N/A   Mostly Cloudy
9:25 AM 51.1 °F - 46.9 °F 86% 30.07 in 10.0 mi NNW 3.5 mph - N/A   Mostly Cloudy
9:53 AM 52.0 °F - 48.0 °F 86% 29.86 in 10.0 mi NW 4.6 mph - N/A   Overcast
10:11 AM 52.0 °F - 48.0 °F 86% 30.07 in 10.0 mi NNW 4.6 mph - N/A   Overcast
10:16 AM 51.1 °F - 48.0 °F 89% 30.07 in 2.5 mi NNW 4.6 mph - N/A   Overcast
10:19 AM 51.1 °F - 48.0 °F 89% 30.08 in 1.2 mi Variable 3.5 mph - N/A   Overcast
10:28 AM 51.1 °F - 48.0 °F 89% 30.08 in 0.8 mi NNW 4.6 mph - N/A   Overcast
10:53 AM 52.0 °F - 48.9 °F 89% 29.88 in 0.8 mi Variable 3.5 mph - N/A   Mist
11:31 AM 51.1 °F - 48.9 °F 92% 30.09 in 0.2 mi Variable 3.5 mph - N/A Fog Fog
11:40 AM 51.1 °F - 48.0 °F 89% 30.09 in 0.5 mi Variable 3.5 mph - N/A Fog Fog
11:46 AM 51.1 °F - 48.0 °F 89% 30.09 in 1.5 mi Variable 4.6 mph - N/A   Overcast
11:53 AM 51.1 °F - 48.0 °F 89% 29.87 in 3.0 mi Variable 3.5 mph - N/A   Overcast
11:59 AM 51.1 °F - 48.0 °F 89% 30.09 in 1.2 mi Variable 4.6 mph - N/A   Overcast
12:07 PM 51.1 °F - 48.0 °F 89% 30.09 in 0.8 mi Variable 4.6 mph - N/A   Mist
12:10 PM 51.1 °F - 48.0 °F 89% 30.08 in 1.8 mi Variable 3.5 mph - N/A   Overcast
12:12 PM 51.1 °F - 48.0 °F 89% 30.08 in 3.0 mi Calm Calm - N/A   Overcast
12:46 PM 53.1 °F - 48.0 °F 83% 30.08 in 10.0 mi Variable 3.5 mph - N/A   Mostly Cloudy
12:53 PM 53.1 °F - 48.0 °F 83% 29.87 in 10.0 mi Variable 3.5 mph - N/A   Mostly Cloudy
1:04 PM 54.0 °F - 48.9 °F 83% 30.08 in 10.0 mi Variable 4.6 mph - N/A   Overcast
1:15 PM 52.0 °F - 48.9 °F 89% 30.08 in 10.0 mi Calm Calm - N/A   Overcast
1:29 PM 51.1 °F - 48.0 °F 89% 30.09 in 1.5 mi Variable 4.6 mph - 0.00 in Rain Light Rain
1:33 PM 50.0 °F - 48.0 °F 93% 30.09 in 0.8 mi Variable 4.6 mph - 0.00 in   Mist
1:51 PM 50.0 °F - 48.2 °F 94% 30.10 in 1.5 mi Variable 3.5 mph - 0.00 in   Overcast
1:53 PM 50.0 °F - 48.0 °F 93% 29.90 in 2.0 mi Variable 5.8 mph - 0.00 in   Overcast
2:01 PM 50.0 °F - 48.0 °F 93% 30.10 in 5.0 mi Calm Calm - 0.01 in Rain Light Rain
2:12 PM 51.1 °F - 48.0 °F 89% 30.10 in 6.0 mi Variable 3.5 mph - 0.02 in Rain Light Rain
2:25 PM 52.0 °F - 48.9 °F 89% 30.10 in 1.5 mi North - - 0.02 in   Overcast
2:34 PM 52.0 °F - 48.9 °F 89% 30.10 in 3.0 mi Calm Calm - 0.02 in   Overcast
2:49 PM 53.6 °F - 48.2 °F 82% 30.10 in 10.0 mi Calm Calm - 0.02 in   Overcast
2:53 PM 55.0 °F - 50.0 °F 83% 29.88 in 10.0 mi Calm Calm - 0.02 in   Overcast
3:22 PM 53.1 °F - 48.0 °F 83% 30.10 in 10.0 mi NW 3.5 mph - N/A   Overcast
3:38 PM 51.1 °F - 46.9 °F 86% 30.10 in 10.0 mi Variable 5.8 mph - N/A   Overcast
3:45 PM 50.0 °F - 46.0 °F 86% 30.11 in 10.0 mi NW 10.4 mph 20.7 mph N/A   Overcast
3:50 PM 48.2 °F - 46.4 °F 93% 30.10 in 2.5 mi NW 8.1 mph 20.7 mph 0.02 in Rain Light Rain
3:53 PM 48.0 °F - 46.0 °F 93% 29.91 in 0.8 mi NW 8.1 mph 20.7 mph 0.05 in Rain Heavy Rain
4:03 PM 48.0 °F - 46.0 °F 93% 30.12 in 0.2 mi NW 8.1 mph - 0.01 in Fog , Rain Light Rain
4:16 PM 48.9 °F - 46.9 °F 93% 30.11 in 0.2 mi Variable 5.8 mph - 0.01 in Fog Fog
4:53 PM 50.0 °F - 48.0 °F 93% 29.92 in 0.2 mi Variable 3.5 mph - 0.01 in Fog Fog
5:53 PM 46.9 °F - 46.0 °F 97% 29.94 in 0.2 mi NW 5.8 mph - 0.00 in Fog , Rain Light Rain
6:53 PM 46.9 °F - 46.0 °F 97% 29.95 in 0.2 mi Calm Calm - 0.03 in Fog , Rain Light Rain
7:39 PM 46.9 °F - 46.0 °F 97% 30.15 in 0.2 mi Calm Calm - 0.03 in Fog , Rain Light Rain
7:53 PM 46.9 °F - 45.0 °F 93% 29.96 in 0.8 mi Variable 4.6 mph - 0.03 in   Mist
7:56 PM 46.9 °F - 45.0 °F 93% 30.16 in 1.5 mi Calm Calm - N/A   Overcast
8:00 PM 46.9 °F - 45.0 °F 93% 30.16 in 0.8 mi Calm Calm - N/A   Overcast
8:05 PM 46.9 °F - 45.0 °F 93% 30.16 in 0.2 mi Calm Calm - N/A Fog Fog
8:35 PM 46.9 °F - 45.0 °F 93% 30.16 in 0.5 mi Calm Calm - N/A Fog Fog
8:49 PM 46.4 °F 45.2 °F 44.6 °F 93% 30.16 in 0.8 mi Variable 3.5 mph - 0.01 in Rain Light Rain
8:53 PM 46.0 °F 44.8 °F 45.0 °F 96% 29.97 in 0.8 mi Variable 3.5 mph - 0.01 in Rain Light Rain
9:13 PM 46.9 °F - 45.0 °F 93% 30.17 in 0.2 mi Calm Calm - 0.00 in Fog , Rain Light Rain
9:53 PM 46.9 °F - 45.0 °F 93% 29.97 in 0.5 mi Variable 6.9 mph - 0.01 in Fog , Rain Light Rain
10:16 PM 46.9 °F - 45.0 °F 93% 30.17 in 0.2 mi Variable 5.8 mph - 0.01 in Fog Fog
10:53 PM 46.9 °F - 46.0 °F 97% 29.97 in 0.2 mi Variable 4.6 mph - 0.01 in Fog Fog
11:00 PM 46.9 °F - 46.0 °F 97% 30.17 in 0.5 mi Variable 3.5 mph - N/A Fog Fog
11:08 PM 46.9 °F - 46.0 °F 97% 30.17 in 0.2 mi Variable 6.9 mph - 0.00 in Fog , Rain Light Rain
11:53 PM 46.0 °F 43.9 °F 45.0 °F 96% 29.99 in 0.2 mi NW 4.6 mph - 0.01 in Fog , Rain Light Rain